Weather History for Hagerstown, MD

Change the Weather History Date:

Friday, September 13, 2013

  Actual Average Record
Temperature  
Mean Temperature 69 °F -  
Max Temperature 74 °F 75 °F 89 °F (2005)
Min Temperature 64 °F 56 °F 50 °F (2002)
Cooling Degree Days 4    
Month to date cooling degree days 106  
Year to date cooling degree days 1091  
Growing Degree Days 14 (Base 50)    
Moisture  
Dew Point 53 °F    
Average Humidity 64    
Maximum Humidity 84    
Minimum Humidity 44    
Precipitation  
Precipitation 0.00 in - - ()
Month to date precipitation 2.19  
Year to date precipitation 21.34  
Sea Level Pressure  
Sea Level Pressure 29.85 in    
Wind  
Wind Speed 11 mph (NW)    
Max Wind Speed 22 mph    
Max Gust Speed 26 mph    
Visibility 10 miles    
Events      
Averages and records for this station are not official NWS values.
T = Trace of Precipitation, MM = Missing Value Source: NWS Daily Summary

Daily Weather History Graph

Daily Weather History Graph

Search for Another Location

Airport:

Trip Planner

Search our weather history database for the weather conditions in past years. The results will help you decide how hot, cold, wet, or windy it might be!

Date:

Astronomy

Sep. 13, 2013 Rise Set
Actual Time 6:50 AM EDT 7:22 PM EDT
Civil Twilight 6:23 AM EDT 7:49 PM EDT
Nautical Twilight 5:51 AM EDT 8:21 PM EDT
Astronomical Twilight 5:18 AM EDT 8:54 PM EDT
Moon 3:09 PM EDT (9/13) 12:18 AM EDT (9/13)
Length of Visible Light 13h 26m
Length of Day
12h 32m
First Quarter, 61% of the Moon is Illuminated
Sep 13
First Quarter
Sep 19
Full
Sep 26
Last Quarter
Oct 4
New
Oct 11
First Quarter

Hourly Weather History & Observations

Time (EDT) Temp. Dew Point Humidity Pressure Visibility Wind Dir Wind Speed Gust Speed Precip Events Conditions
12:53 AM 70.0 °F 61.0 °F 73% 29.77 in 10.0 mi SSW 3.5 mph - N/A   Clear
1:53 AM 70.0 °F 64.0 °F 81% 29.77 in 10.0 mi NW 5.8 mph - N/A   Overcast
2:53 AM 68.0 °F 63.0 °F 84% 29.76 in 10.0 mi NW 8.1 mph - N/A   Overcast
3:53 AM 66.9 °F 60.1 °F 79% 29.78 in 10.0 mi NNW 15.0 mph - N/A   Overcast
4:53 AM 66.0 °F 57.9 °F 75% 29.78 in 10.0 mi NNW 6.9 mph - N/A   Overcast
5:53 AM 66.0 °F 57.0 °F 73% 29.78 in 10.0 mi North 6.9 mph - N/A   Partly Cloudy
6:53 AM 66.0 °F 57.0 °F 73% 29.79 in 10.0 mi Calm Calm - N/A   Overcast
7:53 AM 64.0 °F 57.9 °F 80% 29.82 in 10.0 mi WNW 10.4 mph - N/A   Overcast
8:53 AM 64.0 °F 54.0 °F 70% 29.84 in 10.0 mi NW 9.2 mph - N/A   Mostly Cloudy
9:53 AM 66.9 °F 53.1 °F 61% 29.84 in 10.0 mi NW 19.6 mph 25.3 mph N/A   Clear
10:53 AM 68.0 °F 52.0 °F 56% 29.85 in 10.0 mi WNW 16.1 mph - N/A   Mostly Cloudy
11:53 AM 71.1 °F 52.0 °F 51% 29.84 in 10.0 mi NNW 12.7 mph - N/A   Partly Cloudy
12:53 PM 72.0 °F 48.9 °F 44% 29.83 in 10.0 mi NW 16.1 mph 24.2 mph N/A   Overcast
1:53 PM 72.0 °F 50.0 °F 46% 29.83 in 10.0 mi NW 10.4 mph - N/A   Overcast
2:53 PM 72.0 °F 48.9 °F 44% 29.82 in 10.0 mi West 13.8 mph - N/A   Scattered Clouds
3:53 PM 69.1 °F 48.9 °F 49% 29.84 in 10.0 mi NW 15.0 mph 23.0 mph N/A   Overcast
4:53 PM 68.0 °F 52.0 °F 56% 29.86 in 10.0 mi NNW 15.0 mph 19.6 mph N/A   Overcast
5:53 PM 66.0 °F 51.1 °F 59% 29.87 in 10.0 mi NNW 12.7 mph - N/A   Mostly Cloudy
6:53 PM 64.0 °F 46.9 °F 54% 29.88 in 10.0 mi NW 15.0 mph 25.3 mph N/A   Clear
7:53 PM 60.1 °F 51.1 °F 72% 29.92 in 10.0 mi NW 11.5 mph 21.9 mph N/A   Partly Cloudy
8:53 PM 59.0 °F 50.0 °F 72% 29.95 in 10.0 mi NNW 6.9 mph - N/A   Mostly Cloudy
9:53 PM 57.9 °F 48.9 °F 72% 29.98 in 10.0 mi North 3.5 mph - N/A   Clear
10:53 PM 55.0 °F 48.0 °F 77% 30.00 in 10.0 mi NW 6.9 mph - N/A   Clear
11:53 PM 53.1 °F 45.0 °F 74% 30.01 in 10.0 mi NW 8.1 mph - N/A   Clear